Вернуться в каталог

COSMOS 2251 DEB

АктивенVLEO
NORAD 35071·DEBRIS·🇷🇺 Russia

Запущен Jun 16, 1993 с Plesetsk Cosmodrome

Loading…

Ближайшие Пролёты (ближайшие 24 часа)

TLE

УстаревающийSource: Space-Track

Эпоха: Sep 10, 2026, 11:59 UTC

1 35071U 93036AJA 26253.49992605  .00007974  00000-0  48307-3 0  9991
2 35071  73.9329 331.8199 0060153 163.2114 197.1088 15.09194158716290

Отслеживайте COSMOS 2251 DEB в реальном времени с AllMySat

Download on the App Store